Wind_Speed
35 38 40 42 44 47 49 50 51 53 54 55 56 57 59 61 63 66 67 67 68 67 65 67 66 65 64 65 65 65 68 69 68 69 71 71 72 72 71 69 69 69 69 70 70 71 73 74 75 76 77 78 79 79 80 80 80 81 80 79 76 72 70 69 69 69 70 71 72 72 73 74 74 75 75 76 77 77 78 78 78 80 81 82 82 82
39 43 46 47 48 49 50 51 52 53 55 57 58 60 63 65 66 67 67 66 66 67 67 68 66 63 63 63 64 65 67 69 71 72 72 73 73 72 70 70 70 70 70 71 71 72 73 74 76 77 78 79 79 79 80 80 79 78 75 73 70 68 68 69 71 72 73 74 75 76 76 76 76 77 77 77 78 79 80 81 82 83 84 85 85 86
41 45 47 48 49 50 52 54 56 57 59 60 62 64 66 68 67 65 64 64 66 68 68 68 64 61 63 64 64 66 68 70 72 73 74 74 73 71 70 70 70 71 71 71 72 73 74 75 77 78 78 78 78 78 78 77 74 72 70 69 69 70 71 72 73 75 76 77 78 78 79 79 79 79 79 80 81 83 84 85 86 86 88 89 90 90
43 46 48 49 51 53 55 57 59 60 61 62 63 65 67 67 66 64 64 65 67 68 68 65 62 61 64 66 66 67 69 71 72 74 75 74 73 72 71 72 72 72 72 72 73 74 75 76 77 78 77 77 76 74 72 70 69 69 69 70 71 73 74 75 76 77 78 79 79 80 81 81 82 82 83 84 85 86 87 88 89 90 92 93 94 95
45 48 49 50 53 54 56 58 59 60 62 63 64 66 66 65 65 65 66 67 67 67 65 61 61 62 65 67 68 68 70 72 73 74 74 73 72 72 72 73 73 72 73 73 74 75 76 76 77 76 75 73 70 69 67 67 68 70 71 72 74 75 77 78 79 79 80 81 82 82 83 84 86 87 88 89 89 89 90 91 92 94 96 98 99 101
48 51 51 52 54 56 57 59 62 63 63 63 64 64 64 65 67 69 69 68 67 66 62 61 63 62 65 70 70 69 70 71 72 72 72 72 72 72 72 72 72 73 74 74 75 75 75 74 73 71 69 67 66 66 68 69 71 72 73 74 76 77 78 79 81 82 82 83 84 86 87 88 90 91 93 94 94 94 94 95 96 98 100 102 104 105
52 54 54 56 57 59 60 61 62 63 62 62 63 64 65 67 69 70 69 69 67 65 62 64 66 65 66 71 72 71 70 68 68 70 71 72 71 72 72 72 73 74 74 75 75 74 72 69 67 65 64 65 67 68 70 71 73 74 75 77 78 80 81 82 83 85 86 87 88 90 91 93 94 95 96 97 98 99 99 100 101 103 105 107 108 110
54 55 56 57 57 58 59 60 61 62 62 63 65 67 68 70 70 69 69 69 67 64 64 66 69 68 68 71 74 73 70 67 67 69 70 71 71 72 72 72 73 74 74 74 72 70 67 65 64 64 65 67 69 70 72 73 75 77 78 80 81 83 84 86 87 89 90 91 93 94 96 97 98 99 100 101 102 103 104 105 107 109 111 112 112 113
53 53 54 55 56 56 58 60 61 64 65 67 69 69 69 69 69 69 69 69 67 65 65 67 70 70 70 71 73 72 70 69 67 68 69 70 70 70 71 71 72 72 71 68 66 64 63 64 65 67 68 70 71 73 75 76 78 80 82 83 85 86 88 89 91 92 93 95 96 98 100 101 102 103 104 105 106 108 109 110 111 113 114 115 115 115
52 53 54 55 57 58 61 64 66 67 68 69 69 69 69 69 69 70 69 68 67 66 66 67 69 68 68 70 73 72 70 69 67 67 69 70 69 68 68 68 67 65 63 61 61 62 63 66 68 70 71 73 74 76 77 79 81 83 84 86 88 90 91 93 94 95 97 98 100 102 103 105 106 107 108 109 110 112 113 114 115 116 116 116 115 115
52 54 57 59 61 63 66 67 68 68 68 68 68 68 70 71 70 70 69 68 68 67 66 66 66 66 66 69 73 73 73 71 68 67 67 65 62 61 60 60 60 59 59 60 62 64 66 68 70 72 74 75 77 78 80 82 84 85 87 89 91 93 94 96 97 99 100 102 104 105 107 108 109 110 111 112 114 115 116 117 117 117 116 116 115 114
56 59 61 63 65 66 67 67 67 67 68 69 70 70 70 70 69 67 67 68 69 67 65 64 64 64 65 67 69 72 74 72 68 63 58 55 53 54 56 57 58 59 61 62 65 66 68 70 72 74 76 78 79 81 82 84 86 88 90 92 93 95 97 99 100 102 104 106 107 109 110 111 112 113 115 116 117 118 119 119 118 117 116 116 114 113
61 63 64 65 66 66 66 67 68 69 70 71 72 71 69 67 66 65 65 66 66 64 62 61 61 61 63 65 65 66 66 64 61 57 53 52 53 55 58 59 61 62 64 66 68 70 72 74 75 77 79 81 83 84 85 87 89 91 93 95 97 99 101 102 104 105 107 109 111 112 113 115 116 117 119 120 120 121 121 120 119 117 116 115 113 112
61 63 65 66 68 69 70 70 71 71 70 71 70 69 68 67 66 63 63 63 63 62 60 59 60 59 59 59 59 58 56 55 55 54 54 56 58 59 61 63 64 66 68 70 72 74 76 78 80 81 83 85 87 88 89 91 92 94 96 99 100 102 104 106 108 109 111 112 114 115 116 117 119 121 122 122 123 122 122 120 118 116 115 113 112 110
61 63 66 69 70 72 72 73 73 71 69 67 67 67 66 67 66 62 61 60 60 59 58 58 58 55 51 51 51 52 53 54 56 56 58 61 63 64 65 67 69 71 73 75 76 78 80 82 84 85 86 88 89 91 93 94 96 98 100 102 104 106 108 110 112 114 116 117 119 120 121 122 122 123 124 124 123 122 120 118 116 115 113 111 109 108
63 65 67 70 72 73 72 71 70 68 66 65 65 65 65 65 65 62 61 60 58 56 55 54 52 49 47 48 51 53 55 57 58 60 62 65 67 68 69 71 73 75 77 78 80 82 84 86 88 89 90 91 92 94 96 98 100 102 104 106 108 110 112 114 116 117 119 121 122 125 126 127 127 126 125 124 122 120 118 115 113 111 110 108 107 106
62 64 66 68 70 70 68 66 66 65 64 64 64 64 64 63 63 61 58 58 58 55 51 48 47 47 47 49 52 55 57 59 61 63 66 68 70 72 73 75 77 79 81 82 84 86 88 90 91 92 94 95 96 98 100 102 104 106 108 110 111 113 115 117 119 120 122 123 125 127 129 131 130 128 125 122 120 117 115 112 110 108 107 106 105 104
57 58 61 63 64 64 63 63 63 63 63 63 63 63 62 60 60 59 56 55 55 50 46 46 48 50 51 52 54 57 59 61 63 67 70 72 73 75 76 78 81 83 84 86 87 89 91 93 95 96 97 98 99 101 103 106 108 110 112 113 115 116 118 120 122 124 125 127 128 128 129 130 131 129 125 121 117 114 112 110 108 106 104 104 104 103
53 52 54 58 60 60 61 62 62 61 62 62 61 61 60 58 57 57 54 51 49 45 44 46 50 54 56 57 58 60 61 64 67 70 73 75 77 78 80 82 84 86 87 89 91 93 95 97 98 100 101 102 103 105 107 109 111 113 116 118 119 121 122 124 126 128 130 131 131 131 129 128 127 126 123 119 115 112 109 108 106 105 103 103 102 102
52 51 52 55 58 59 60 61 61 60 59 59 59 59 59 58 56 55 52 49 46 45 46 48 52 57 59 60 62 64 65 67 69 73 76 79 80 82 84 87 88 90 92 93 95 97 98 100 102 103 104 105 107 109 111 113 115 117 120 122 123 125 127 129 131 132 133 134 134 132 129 126 123 120 118 116 112 109 107 106 105 104 103 102 101 101
52 52 51 54 57 57 58 58 58 58 57 56 57 57 58 58 56 52 49 49 49 49 51 52 54 59 63 64 65 67 69 71 73 76 80 83 84 86 89 92 93 95 96 98 99 100 101 102 104 106 108 109 111 113 115 117 119 121 123 125 127 129 131 133 135 136 136 135 133 130 127 123 119 115 113 112 110 108 106 105 104 103 102 101 100 99
52 51 51 52 54 55 56 55 55 56 56 56 55 56 55 54 52 49 47 49 52 54 56 58 58 61 67 69 69 71 74 75 76 81 85 87 89 91 94 96 99 100 101 102 103 104 105 106 108 109 111 113 115 117 119 121 122 124 126 128 131 133 134 136 137 136 135 132 129 125 122 118 114 111 109 109 109 107 107 106 104 103 101 100 99 98
51 51 51 52 52 53 55 55 54 54 55 55 54 54 52 49 48 48 49 51 54 56 60 62 62 65 69 71 73 75 78 79 81 84 87 89 92 95 98 100 103 104 106 107 107 108 108 110 112 114 116 117 119 121 123 125 127 129 131 132 134 135 137 137 136 134 131 127 123 120 118 115 112 110 108 108 107 106 106 106 104 102 100 99 98 96
51 51 50 51 52 53 55 54 53 54 55 54 52 51 50 50 50 52 54 55 56 59 63 65 67 71 74 75 77 79 81 84 87 88 90 92 95 98 100 103 105 107 109 110 110 111 112 114 116 119 121 123 124 126 128 130 132 133 135 136 137 137 136 135 132 129 126 122 118 116 114 113 112 111 109 107 106 105 105 105 103 101 99 97 96 94
52 53 51 50 51 52 53 53 52 52 53 52 48 48 50 53 55 57 58 60 61 63 67 69 70 74 79 81 82 83 86 90 93 94 96 97 100 102 105 107 109 110 111 112 113 115 117 119 121 123 126 128 129 131 132 134 136 137 138 138 137 135 131 128 125 122 119 117 115 113 111 110 110 110 108 106 104 103 103 103 102 100 98 95 93 92
52 53 52 50 50 50 51 51 49 47 48 48 47 47 50 54 58 60 62 64 66 67 70 73 73 76 81 85 86 87 91 94 96 99 101 103 105 108 109 111 112 113 115 116 117 119 121 123 125 127 130 132 133 135 137 138 140 140 139 136 132 128 124 121 118 116 115 113 112 111 109 107 107 107 106 104 103 101 101 101 100 99 96 94 92 91
51 52 52 51 51 51 49 48 46 43 43 46 48 51 53 56 60 63 65 67 69 70 73 77 79 80 84 88 90 92 95 97 100 102 105 107 110 111 113 114 115 117 119 120 122 123 125 127 129 131 133 135 137 139 140 140 139 137 133 129 125 122 119 117 115 113 112 111 110 109 108 106 105 104 103 102 101 99 99 100 99 98 95 93 91 90
49 51 51 51 51 49 46 45 43 42 44 47 51 55 57 60 63 66 69 71 73 74 76 80 84 86 89 91 94 96 99 101 103 106 109 111 112 113 114 115 117 119 122 124 126 127 129 132 133 135 137 139 140 140 139 136 133 129 126 123 120 118 117 115 113 111 110 109 108 106 105 103 102 101 100 100 99 98 98 99 99 97 95 93 91 90
49 50 50 49 49 46 44 44 44 45 48 51 55 59 61 63 67 69 73 75 77 79 81 83 88 92 94 96 98 101 103 105 108 110 112 114 115 115 116 118 120 123 125 128 130 132 134 136 138 140 140 140 138 135 131 128 125 124 122 120 118 116 115 114 112 110 108 107 105 104 103 101 100 99 98 98 98 97 97 98 98 96 94 91 90 89
48 47 45 44 45 45 45 47 47 49 53 56 59 63 65 67 70 73 76 79 81 84 86 88 92 95 98 100 102 105 108 110 112 114 115 117 118 119 120 122 124 127 129 132 134 136 138 140 141 140 138 135 131 128 125 123 121 119 118 117 115 113 112 111 109 108 106 105 104 103 103 102 101 99 98 97 97 96 94 94 95 95 93 89 87 86
43 42 41 41 44 46 48 51 52 53 56 60 64 67 69 71 73 76 80 83 85 88 91 94 97 99 101 104 107 109 112 114 115 117 118 120 122 124 126 128 130 132 134 136 138 139 140 140 138 134 130 127 124 122 121 118 116 115 114 113 112 110 109 108 107 106 105 104 104 103 103 102 101 100 98 96 95 94 93 91 91 91 91 89 85 83
39 39 40 42 45 49 51 54 56 57 59 63 67 71 73 74 77 80 84 87 89 91 94 98 100 102 104 107 109 111 113 115 118 121 123 125 126 128 131 133 135 136 137 138 138 137 135 132 128 125 122 121 119 117 116 114 111 110 109 109 108 108 107 106 106 105 105 104 103 102 101 100 98 97 96 94 93 91 90 89 88 87 87 86 85 82
39 40 42 45 48 52 54 57 60 61 63 66 70 74 76 78 81 85 88 91 93 96 99 101 104 105 107 109 110 111 113 116 120 125 128 130 131 132 134 136 138 139 138 136 133 129 126 123 120 118 117 115 114 112 111 110 108 107 106 106 106 106 106 105 105 104 103 102 100 98 97 95 94 93 92 92 90 89 87 86 85 84 83 82 82 80
41 44 46 48 51 54 57 60 63 66 68 71 75 78 81 83 85 88 91 94 97 100 103 106 107 108 110 112 113 115 117 119 122 127 132 134 135 136 137 138 138 136 134 130 125 122 119 117 115 113 112 111 111 109 108 108 107 106 106 105 104 104 103 102 102 100 99 98 97 95 93 91 90 89 88 88 88 87 85 83 82 81 80 78 77 76
45 48 51 53 55 58 61 64 66 69 73 77 80 83 86 88 90 92 95 98 101 103 106 108 110 111 113 116 118 120 121 123 126 131 134 136 138 138 138 135 132 128 125 122 119 117 114 113 111 110 110 109 108 107 106 106 105 105 105 104 103 101 99 98 97 96 95 93 92 91 89 88 87 86 85 84 84 84 83 81 79 78 76 75 74 73
49 52 55 57 60 63 65 68 70 72 76 80 84 87 90 93 95 96 97 100 103 105 107 108 111 114 117 119 122 124 126 127 129 133 137 138 138 137 134 130 126 121 119 116 115 113 111 109 108 108 107 106 105 104 103 103 103 103 103 102 101 98 96 94 92 91 90 89 89 88 86 85 84 84 84 83 81 80 79 79 77 75 73 72 71 71
54 57 59 62 64 67 69 72 75 77 80 84 88 90 92 95 98 99 98 100 103 106 108 111 113 117 120 123 126 129 130 131 132 134 136 135 133 131 128 125 122 119 115 113 111 110 110 108 106 105 104 103 102 102 101 100 99 99 99 99 98 96 94 92 90 88 86 85 85 85 84 84 83 82 82 82 81 78 77 76 74 73 72 70 69 70
58 61 63 66 68 71 74 76 79 82 85 88 91 92 94 97 100 102 103 105 108 112 114 116 118 121 125 128 130 132 133 131 129 128 127 126 125 123 121 119 117 116 114 111 109 107 107 107 106 105 104 102 101 100 99 98 96 96 95 94 93 92 90 89 87 85 83 81 81 82 82 82 82 81 81 82 80 78 75 73 71 71 70 69 68 68
63 66 68 71 73 76 79 81 83 84 87 90 91 93 96 100 103 106 108 110 114 118 121 123 125 127 129 131 132 132 131 127 122 119 117 117 116 115 114 112 111 111 111 110 108 107 106 106 106 106 105 103 100 99 97 95 94 93 92 91 89 88 86 84 83 82 80 78 78 79 80 80 80 78 78 79 79 78 75 71 70 69 68 67 67 66
67 70 73 76 78 80 82 83 85 87 89 92 94 96 99 104 108 111 113 115 118 121 125 128 129 130 130 129 128 126 125 122 117 113 111 111 110 111 110 109 108 107 107 107 107 107 106 105 105 104 103 101 99 97 95 93 91 91 89 88 86 84 82 81 80 79 78 77 76 76 76 76 77 76 75 74 75 76 74 71 69 68 67 65 64 64
71 73 75 78 80 82 83 85 88 90 93 97 99 101 104 107 111 115 118 120 121 123 125 127 128 127 125 123 121 119 118 117 115 113 111 110 110 109 108 107 107 107 107 107 107 105 104 103 103 102 101 100 98 95 93 91 90 89 88 86 84 82 80 79 78 77 76 75 74 73 72 72 72 72 72 71 70 71 71 70 69 66 64 64 63 62
71 73 75 78 81 84 86 89 92 95 98 100 103 106 109 111 114 117 120 122 123 123 122 122 122 121 119 117 116 115 114 113 114 113 112 111 110 109 108 108 108 108 107 107 106 105 103 102 101 101 100 98 97 95 93 90 88 86 85 83 81 80 79 78 77 76 74 72 71 71 70 69 69 69 69 68 67 66 66 68 68 65 62 61 61 60
73 75 78 81 84 87 90 93 96 99 101 104 107 109 112 115 117 119 120 121 122 121 120 118 118 117 116 115 113 113 112 112 112 112 112 111 111 111 110 109 108 106 105 104 103 102 101 99 99 98 98 97 95 93 91 88 85 83 82 81 79 78 77 76 75 73 72 70 69 69 69 68 68 67 66 66 65 64 63 64 66 64 60 58 58 57
76 79 82 85 88 91 94 97 101 104 107 109 111 113 115 117 119 119 119 119 119 118 118 117 117 116 115 114 112 111 111 110 110 110 110 110 110 110 109 108 106 104 103 101 100 98 97 95 94 94 94 94 93 91 89 86 83 80 79 78 77 75 74 73 72 70 69 67 67 67 66 66 66 65 65 64 62 61 61 61 62 62 59 56 54 54
81 83 86 90 94 96 99 102 106 109 112 114 116 117 118 119 119 119 118 118 117 117 116 116 114 113 113 112 110 109 109 108 107 108 108 108 107 107 105 104 103 101 99 98 96 95 93 92 92 91 91 91 90 89 87 85 82 78 76 74 73 72 71 69 68 67 65 64 64 64 63 62 63 63 62 61 60 58 58 58 57 58 57 53 51 51
86 89 92 95 99 102 105 108 111 114 116 117 118 119 119 118 117 117 117 117 116 115 114 113 112 111 110 109 108 107 107 107 107 107 107 106 104 103 101 100 98 97 96 94 93 92 91 90 89 89 88 87 88 87 86 84 81 77 74 71 70 69 68 66 65 63 62 61 60 60 59 58 58 59 59 59 57 55 55 54 53 54 54 51 49 49
91 94 97 101 104 107 110 112 114 116 117 117 117 116 116 115 115 115 114 115 114 114 113 111 110 109 109 108 108 107 107 107 106 105 104 102 101 99 97 96 94 94 93 93 92 91 89 87 87 87 86 86 86 85 84 83 80 77 73 70 68 66 65 64 63 61 60 59 58 58 57 55 55 55 56 56 54 53 52 50 49 50 50 49 48 47
97 99 102 105 108 110 112 113 114 115 115 115 114 113 112 112 112 112 112 111 112 112 111 110 109 109 108 108 108 107 106 105 104 102 101 99 98 96 94 93 92 91 91 91 91 90 89 87 86 85 85 84 83 83 82 80 78 76 73 70 68 66 65 64 63 62 60 58 57 56 56 54 53 52 53 53 52 50 49 47 45 46 47 47 47 46
102 104 106 108 109 111 112 112 111 110 110 110 110 110 109 109 109 109 109 109 109 109 108 108 109 109 109 108 107 106 104 102 101 100 99 97 95 94 92 91 90 90 90 90 90 89 88 87 85 84 83 82 81 80 78 77 76 74 72 70 69 67 65 64 63 62 60 58 56 54 53 53 52 50 51 51 49 47 46 44 42 43 44 44 45 45
105 107 108 109 109 109 109 108 107 105 104 105 105 106 106 106 106 107 107 107 107 107 107 107 108 109 108 107 106 103 101 100 99 97 96 95 94 92 91 90 88 88 89 89 88 88 87 86 85 83 82 81 79 78 77 76 74 73 72 70 68 66 64 63 62 61 58 56 54 52 51 51 50 49 48 48 47 45 43 42 40 40 41 41 42 43
108 108 108 108 107 106 105 104 104 103 103 103 104 104 104 104 104 105 105 105 106 107 107 107 107 106 105 104 103 101 99 98 96 94 93 93 92 91 90 89 88 87 87 87 87 86 85 84 82 81 80 79 78 77 77 76 74 72 70 69 67 65 63 61 60 59 57 55 53 51 49 49 48 47 46 44 44 43 41 39 38 37 38 39 39 40
Wind_Direction
273 274 273 271 268 266 264 264 264 264 266 269 272 274 276 279 281 283 285 286 287 287 289 290 292 292 289 287 288 289 290 292 292 292 293 294 295 295 294 292 291 291 291 291 291 291 292 292 292 292 292 293 294 296 297 298 297 296 296 296 296 296 296 296 296 296 296 296 297 297 297 297 297 296 296 296 295 295 294 294 293 292 291 291 290 289
272 271 268 266 264 262 263 265 267 269 271 274 276 278 279 280 281 283 285 286 287 288 290 292 292 290 288 288 288 289 290 291 292 293 294 295 295 294 292 292 292 292 292 292 292 292 292 292 292 293 293 294 296 297 297 296 295 295 295 296 296 296 296 296 297 297 297 297 297 297 297 297 296 296 295 295 294 294 294 293 293 292 291 291 290 288
268 266 264 263 263 264 266 269 271 274 275 276 278 279 280 281 282 283 284 286 288 290 292 293 292 290 289 289 289 289 290 291 292 293 294 295 294 293 292 292 292 292 293 293 293 293 292 292 292 293 294 295 296 296 296 295 295 296 296 296 296 297 297 297 297 297 298 297 297 297 297 297 296 295 295 294 294 293 293 293 293 293 292 291 290 289
265 264 263 264 265 267 269 270 272 273 275 276 278 280 280 282 283 283 284 286 288 291 292 292 291 291 291 290 290 290 290 291 292 293 294 294 293 293 293 293 292 292 292 292 292 292 292 292 293 294 295 296 296 295 295 295 296 296 296 297 297 298 298 298 298 298 298 297 297 297 296 296 295 295 294 294 294 294 294 294 294 294 294 293 292 291
263 263 264 265 266 267 269 271 273 274 276 278 280 281 281 282 283 284 286 287 289 291 292 291 290 291 291 290 290 290 290 291 292 293 293 292 292 292 292 292 292 292 292 292 292 292 292 293 294 295 296 295 295 294 295 296 296 297 297 297 298 298 298 298 298 298 297 297 297 296 296 296 296 296 296 296 295 296 296 296 296 296 295 295 294 293
262 262 264 266 268 270 272 274 275 276 278 280 280 281 282 283 285 286 288 289 290 292 292 291 291 292 292 290 290 290 289 290 292 291 290 290 290 291 290 291 292 292 292 292 292 293 293 294 295 296 295 295 294 295 296 296 297 297 297 298 298 298 298 297 297 297 297 297 297 298 298 298 298 298 298 298 298 298 298 297 297 297 296 296 295 293
261 263 265 267 270 272 274 276 277 278 279 279 280 281 282 284 286 288 289 290 292 293 293 293 292 293 292 291 290 290 289 290 290 290 290 290 291 291 291 292 293 293 293 293 294 295 295 296 295 295 294 295 295 296 297 297 297 297 297 297 297 298 298 298 298 299 299 299 299 300 300 300 300 300 300 300 300 300 300 299 299 298 297 296 295 293
266 268 270 271 273 274 275 276 277 278 279 280 281 282 284 285 287 288 290 292 293 294 294 294 294 294 293 292 291 290 290 290 290 289 289 290 291 292 293 293 293 293 293 294 296 296 296 296 295 295 295 296 297 297 297 297 297 297 297 298 298 299 299 300 300 300 300 301 301 301 301 301 301 301 301 301 301 301 301 300 300 299 298 297 295 293
271 272 273 273 274 274 274 275 276 278 280 282 283 284 285 287 288 289 291 293 293 294 294 294 294 294 293 292 290 290 290 290 289 289 290 290 291 292 292 292 292 293 294 295 296 296 296 296 296 296 296 297 297 297 297 297 297 297 298 299 299 300 300 300 300 301 301 301 301 301 301 301 301 301 301 301 301 301 301 300 300 299 298 296 294 292
272 272 272 272 273 273 274 275 277 280 282 283 285 286 287 288 290 291 292 293 293 293 293 293 293 293 293 292 291 291 291 291 291 291 291 291 292 293 293 293 293 293 294 295 295 295 295 295 296 296 297 297 297 296 297 297 298 298 299 299 299 299 299 300 300 301 301 301 301 301 301 301 301 302 302 302 302 301 301 300 300 298 297 295 293 292
268 269 270 271 273 274 276 278 280 283 285 286 287 288 289 290 291 292 293 293 293 293 293 293 293 293 293 292 292 293 292 292 292 292 292 294 295 296 295 293 293 293 294 295 295 295 295 295 296 296 296 296 296 297 297 297 298 298 298 298 298 299 299 300 300 301 301 301 301 301 301 302 302 302 302 302 302 301 301 300 299 297 295 294 292 291
268 269 271 273 275 277 279 282 283 285 287 288 289 289 289 290 291 291 292 292 292 293 293 293 292 293 292 291 292 292 292 293 293 294 296 298 298 296 294 293 294 295 295 295 295 295 295 296 296 296 296 296 296 297 297 297 297 297 298 298 298 299 299 300 300 301 301 301 301 301 302 302 302 302 302 302 302 301 300 299 298 296 295 293 292 291
272 274 276 277 279 281 282 284 285 287 288 289 290 290 290 290 290 291 291 291 292 292 293 293 293 293 292 291 291 291 292 294 295 298 299 299 297 295 294 294 296 296 296 295 295 296 296 296 297 296 296 296 297 297 297 297 297 298 299 299 299 299 299 300 300 300 301 301 301 301 302 302 303 303 303 303 302 301 300 299 298 296 295 293 293 292
275 278 280 281 283 284 285 286 287 288 289 290 290 290 291 291 291 291 291 292 293 293 294 294 293 293 292 291 291 291 293 294 296 298 299 297 295 295 295 296 297 297 297 297 297 297 298 298 297 297 297 297 297 298 298 298 298 299 299 299 299 299 300 300 300 301 301 301 301 302 302 303 303 303 303 303 302 301 300 299 297 296 295 294 293 293
277 278 280 282 283 284 285 287 288 289 289 289 290 290 290 290 291 292 292 293 293 294 294 294 292 291 289 288 289 291 292 293 295 297 297 296 296 296 297 298 298 297 297 297 298 298 298 298 297 297 297 297 298 298 298 298 299 299 300 300 300 300 300 301 301 302 302 303 303 303 303 303 303 303 303 302 301 300 299 298 297 296 295 294 294 293
277 278 280 281 283 284 285 287 288 289 289 290 290 290 291 291 292 294 294 294 294 294 294 292 290 289 288 289 290 291 293 294 296 297 296 296 296 297 298 298 298 297 297 298 299 299 298 298 298 298 298 298 297 298 298 299 299 300 300 300 300 300 301 301 302 302 302 302 303 303 303 303 303 303 302 302 301 299 298 297 296 295 294 294 293 293
278 279 280 282 283 284 286 287 288 289 289 290 290 290 291 292 293 293 294 295 294 294 292 288 286 286 287 288 290 291 292 293 295 295 295 295 296 297 298 298 298 298 298 299 299 299 299 299 298 298 298 298 298 298 299 300 300 300 300 300 300 301 301 301 301 301 302 302 302 303 304 304 303 303 302 301 299 298 297 296 295 295 294 294 293 293
281 281 282 283 284 285 286 287 288 289 289 290 291 291 292 292 293 293 294 294 292 291 289 287 286 287 287 287 288 289 291 293 294 295 295 296 297 297 298 298 298 298 298 299 299 298 298 298 298 298 298 298 299 299 300 300 300 300 300 300 300 300 300 301 301 302 302 303 303 303 303 303 303 302 301 300 299 298 297 296 295 294 294 294 293 293
284 284 284 285 285 287 288 288 289 290 291 292 293 293 293 293 293 294 294 291 288 287 286 287 288 289 290 290 290 290 292 294 295 295 296 296 297 297 297 297 296 297 297 298 298 299 299 299 299 299 299 299 300 300 300 300 300 300 300 300 300 301 301 302 302 303 303 304 304 303 303 302 302 301 300 299 298 297 296 296 295 294 294 294 293 293
287 288 287 286 287 288 289 289 291 292 292 293 293 294 294 294 295 295 292 288 285 284 284 285 287 288 289 290 290 292 293 293 294 295 295 295 296 296 297 297 297 297 298 299 299 300 300 300 299 299 299 300 300 300 300 300 300 300 300 301 301 302 303 303 303 304 304 304 303 303 302 301 300 299 299 298 297 296 296 295 295 294 294 293 293 293
290 290 289 288 289 290 290 291 293 293 293 293 293 294 295 295 295 293 290 288 287 287 286 286 287 289 289 289 291 293 293 294 295 296 296 296 297 298 298 298 298 299 299 299 300 299 299 299 299 298 299 299 300 300 300 300 300 301 301 302 302 303 304 304 304 304 303 303 302 302 301 300 299 298 297 297 296 296 295 294 294 294 293 293 293 293
292 292 292 291 291 292 292 292 293 293 294 294 294 294 293 292 291 289 287 287 288 289 289 289 290 290 290 292 294 294 295 296 297 297 297 298 299 299 299 299 299 299 300 299 299 299 298 298 298 298 299 300 300 300 301 301 301 302 302 303 303 304 304 304 303 303 302 302 301 300 299 298 297 297 296 296 296 296 295 294 294 293 293 293 292 292
294 294 294 294 293 293 293 294 294 294 294 294 294 294 292 289 286 285 284 285 286 288 289 290 291 290 290 292 294 294 295 296 296 296 296 298 298 298 298 299 299 299 299 299 299 299 299 299 299 300 301 301 301 301 302 302 303 303 303 303 303 303 303 303 302 301 301 300 299 299 298 298 297 297 296 295 295 295 295 294 293 293 293 292 292 291
294 294 294 294 295 295 294 295 296 296 296 295 295 294 292 290 287 286 286 286 287 289 290 291 292 292 292 294 294 295 297 297 296 296 297 297 297 297 298 298 298 299 299 299 300 300 300 301 301 301 302 302 303 303 303 303 303 303 303 303 303 303 302 301 301 300 299 299 298 298 298 298 297 296 295 295 295 294 294 293 293 293 292 292 291 291
295 295 295 295 295 295 295 296 296 296 295 294 294 293 292 291 290 290 290 291 291 291 292 292 293 294 296 296 297 298 298 298 298 298 298 298 298 298 298 298 299 299 300 300 300 301 301 302 302 303 303 303 303 303 303 303 303 304 303 303 302 302 301 300 299 299 298 298 297 297 297 296 296 295 295 294 294 293 293 292 292 292 291 291 291 291
297 297 297 297 295 294 294 294 294 293 292 291 291 290 289 289 290 291 291 292 292 293 293 293 294 296 296 297 298 299 298 298 299 299 300 300 300 300 300 301 301 301 301 301 301 302 302 303 303 303 302 302 303 303 304 304 304 303 303 302 301 300 300 299 298 298 298 297 297 296 296 295 295 294 294 294 293 293 292 292 291 291 291 291 291 291
299 298 298 298 296 295 294 293 292 290 289 289 289 289 288 288 290 290 291 291 292 293 294 295 296 296 296 297 298 298 298 299 300 300 301 301 301 301 301 301 301 301 301 302 302 303 303 302 302 302 302 303 304 304 304 303 303 302 301 301 300 300 299 299 298 298 297 297 297 296 295 295 294 294 293 293 293 292 292 291 291 291 291 291 291 290
299 298 298 298 296 295 294 292 291 290 289 289 289 289 289 290 290 291 292 292 293 294 295 297 298 298 298 298 299 299 300 300 300 301 301 301 300 300 300 301 301 301 301 302 302 302 302 302 303 303 303 304 304 303 303 302 302 301 301 300 300 300 299 299 298 298 297 297 296 295 295 294 293 293 293 292 292 291 291 291 290 290 290 290 290 290
299 298 298 298 296 295 293 292 291 292 291 290 290 290 290 291 292 293 294 295 296 297 298 298 299 299 299 300 300 300 301 301 301 300 300 300 300 300 300 301 301 301 302 302 302 303 303 303 304 304 304 304 303 303 302 302 301 301 301 301 301 300 299 299 298 298 297 296 296 295 295 294 293 293 292 292 291 291 290 290 290 290 290 290 290 290
298 298 297 296 295 294 294 293 293 293 293 293 292 292 293 294 295 296 297 297 298 299 300 300 300 300 300 301 301 301 301 301 301 301 300 300 300 301 301 302 302 302 302 302 303 303 304 304 304 304 303 303 303 302 302 301 301 301 300 300 300 299 298 298 297 297 297 296 296 296 296 295 294 294 293 292 292 291 290 290 290 290 290 289 289 288
298 297 296 295 295 295 295 295 295 296 296 296 296 296 296 297 298 298 298 299 299 300 301 300 300 300 301 301 302 302 301 301 301 301 301 301 301 302 302 302 302 303 303 303 303 304 304 303 303 303 303 302 302 301 301 301 300 300 300 299 299 298 298 298 298 297 297 297 297 296 296 295 295 294 294 293 292 291 290 290 289 289 289 290 289 289
297 296 295 295 295 295 295 296 296 296 297 297 297 296 297 298 298 298 298 299 299 300 300 300 300 300 301 301 301 301 301 301 301 301 301 301 302 303 303 303 303 303 303 303 303 303 303 303 303 303 302 302 301 301 300 300 300 300 299 299 299 299 299 299 298 298 298 297 297 296 295 295 294 294 293 292 291 291 290 290 289 289 289 289 290 289
296 295 294 295 295 295 295 296 296 296 296 296 296 296 297 298 298 299 299 299 300 300 300 300 300 300 300 300 300 300 301 301 302 302 302 302 302 302 302 302 303 303 303 304 304 304 304 303 303 302 302 301 301 301 301 300 301 300 300 300 300 299 299 299 298 298 297 297 296 295 295 294 294 293 292 292 291 290 289 289 289 288 288 288 289 289
295 295 294 294 294 295 295 296 297 298 298 298 297 297 298 298 298 299 299 300 300 300 300 300 300 300 301 301 301 301 302 302 302 301 301 302 302 303 303 304 304 304 305 305 305 304 304 304 303 303 302 302 302 302 302 302 302 302 301 300 299 298 298 297 297 297 296 296 296 295 295 294 293 292 291 291 290 290 289 289 288 288 288 288 287 287
295 295 295 295 296 296 297 297 298 300 300 300 299 299 299 300 300 300 301 301 301 301 301 301 302 302 302 302 302 301 301 301 301 301 301 302 303 304 304 305 305 305 305 305 305 305 304 304 304 304 303 303 303 303 303 302 302 301 300 299 298 297 297 297 297 296 296 296 295 295 294 294 293 292 291 290 289 289 289 289 288 288 287 287 287 286
297 297 298 298 298 299 299 299 299 300 300 300 300 301 301 301 301 301 301 302 301 301 301 301 301 301 301 301 301 301 301 302 302 303 303 304 305 305 306 306 306 306 306 306 306 306 305 305 305 304 304 303 303 302 301 301 300 300 299 299 298 298 298 297 297 297 296 296 296 295 294 293 292 291 291 290 289 288 288 288 288 287 287 286 286 285
299 300 300 300 300 300 300 300 301 301 301 301 301 301 301 301 301 301 301 300 300 300 300 300 300 300 300 301 301 302 302 303 304 305 305 306 306 307 307 307 307 307 307 307 307 307 306 306 305 304 303 303 302 302 301 301 300 300 299 299 299 299 299 299 299 298 297 297 296 295 294 293 292 292 291 290 289 289 288 287 287 287 286 285 284 283
301 301 301 301 301 302 302 302 302 303 303 302 301 302 302 302 301 301 302 301 301 301 301 301 301 302 302 303 303 304 304 305 305 306 306 306 307 307 307 308 308 308 308 308 307 307 306 306 305 304 304 303 303 302 302 302 301 300 300 300 300 300 300 300 299 299 298 297 295 294 293 292 291 291 291 290 290 289 289 289 288 287 285 284 283 282
303 303 303 303 303 303 303 303 303 303 303 302 302 303 303 302 302 302 302 303 303 303 303 303 304 304 304 305 305 305 305 306 307 307 307 307 307 307 308 308 308 308 308 308 308 308 307 307 306 305 305 304 304 303 303 303 302 302 301 301 301 301 301 301 300 299 298 296 295 294 293 292 291 290 290 290 290 291 291 290 288 286 285 283 282 282
305 305 305 305 305 305 305 304 304 304 304 303 303 304 303 303 303 303 303 304 304 304 304 305 305 305 305 305 306 306 307 308 309 309 309 309 309 309 309 309 309 309 309 309 309 309 308 308 307 306 306 305 305 305 304 304 304 304 303 303 303 303 303 302 300 299 298 296 295 293 292 292 291 291 290 289 289 290 291 290 288 286 285 284 283 282
306 306 306 306 306 306 306 306 306 305 305 304 304 304 303 303 303 304 304 304 304 304 304 305 305 305 306 307 308 308 309 310 311 312 312 311 311 311 310 310 311 311 310 310 310 309 309 308 308 307 307 307 306 306 306 306 306 306 306 306 305 305 304 302 301 299 298 297 296 294 293 292 291 291 290 289 289 289 289 289 288 286 286 284 283 282
307 307 307 307 307 307 306 306 305 305 304 304 304 304 304 303 304 304 304 304 305 305 305 306 306 307 308 309 310 312 312 313 313 313 313 312 312 312 312 312 312 312 311 311 310 310 310 310 309 309 308 308 308 308 308 308 308 307 307 307 306 305 304 303 301 300 299 298 297 296 294 293 292 291 291 290 289 289 288 288 288 287 286 284 283 282
308 308 308 307 306 306 305 305 304 304 303 303 304 304 304 305 305 305 305 306 306 307 308 309 309 310 311 312 313 314 314 314 314 313 313 313 313 313 313 313 312 312 312 311 311 311 311 311 310 310 309 309 309 309 308 308 308 308 308 307 307 306 304 303 301 301 300 299 298 296 295 294 293 292 291 291 290 289 288 287 287 288 287 285 284 283
309 308 307 307 306 305 305 305 305 305 305 305 306 306 306 306 307 307 308 309 309 310 311 311 312 313 314 314 315 315 315 314 314 314 314 313 313 313 313 313 312 312 312 312 311 311 311 311 310 310 309 309 309 309 309 309 309 309 309 308 307 306 304 303 302 301 301 299 298 296 295 294 293 292 291 290 290 289 288 287 287 288 288 286 285 283
308 307 307 307 306 306 307 307 307 307 308 308 308 309 309 309 310 310 311 311 312 312 312 313 314 314 315 315 315 315 315 315 314 314 314 313 313 313 313 313 313 313 313 312 312 312 312 312 311 311 311 311 310 310 310 310 310 310 309 309 307 306 305 304 303 302 301 299 297 296 295 294 293 292 291 290 290 289 288 287 287 287 287 287 285 282
308 308 308 309 309 309 309 310 310 310 310 310 310 311 311 312 312 312 313 313 313 313 314 314 315 316 316 315 315 315 315 315 315 315 314 314 314 313 314 314 314 314 314 313 313 313 313 313 313 312 312 312 311 311 311 311 311 311 311 310 308 307 306 305 304 303 301 299 297 296 295 293 292 291 291 290 290 289 288 287 287 286 286 286 284 281
311 311 311 311 311 311 311 311 311 311 311 311 312 312 313 313 313 313 313 313 313 314 315 316 316 316 316 316 316 316 316 316 315 315 315 314 314 314 315 315 315 315 315 315 314 314 314 314 313 313 313 312 312 312 312 312 313 313 312 311 310 309 308 308 306 304 302 301 300 298 297 295 293 292 291 291 291 290 289 288 288 286 286 285 283 281
313 313 313 313 312 312 312 312 312 312 312 313 313 313 313 313 313 313 313 314 315 315 316 317 317 317 317 317 317 317 316 316 316 316 316 315 316 316 316 317 317 317 316 316 315 315 315 315 314 314 314 314 314 314 314 314 314 314 314 313 313 313 312 311 309 307 305 304 302 301 299 298 296 295 293 292 292 292 291 290 288 286 285 285 284 282
314 314 313 313 313 313 313 313 313 313 313 313 313 313 313 313 313 314 315 316 316 317 317 318 318 317 317 317 317 317 317 317 317 317 317 317 317 318 318 318 318 318 317 316 316 316 316 316 316 316 316 315 315 315 315 315 315 315 316 316 316 315 314 312 310 308 307 306 305 303 302 300 298 296 295 294 294 293 292 291 289 287 285 284 283 282
314 314 314 314 314 314 313 313 313 313 312 312 312 313 314 315 315 316 317 317 318 318 318 318 318 318 318 318 318 318 319 319 319 319 319 319 318 319 319 318 318 318 318 317 317 317 317 317 317 317 318 317 317 317 317 317 317 317 317 317 316 315 314 313 311 310 309 308 307 306 304 302 300 298 297 296 296 295 293 292 290 287 285 283 282 282
314 314 315 315 314 314 314 314 314 314 314 314 314 315 316 316 317 318 318 319 319 319 319 318 318 318 318 319 319 320 320 320 320 320 320 319 319 319 319 319 319 319 319 318 318 318 318 318 318 319 319 319 319 319 319 318 318 318 318 317 316 315 314 313 312 312 311 310 309 308 306 303 301 300 299 297 296 295 293 292 291 289 286 284 282 281
Height
10647 10646 10645 10645 10645 10644 10642 10641 10640 10639 10637 10636 10634 10633 10631 10628 10625 10622 10621 10619 10613 10612 10611 10608 10607 10603 10595 10590 10588 10586 10580 10577 10578 10575 10571 10568 10564 10559 10554 10550 10547 10545 10542 10539 10536 10532 10528 10524 10520 10517 10513 10509 10505 10502 10499 10495 10491 10487 10483 10479 10477 10475 10471 10467 10464 10461 10459 10455 10453 10451 10448 10446 10443 10440 10436 10433 10429 10425 10422 10420 10418 10413 10409 10407 10405 10402
10644 10643 10641 10641 10641 10640 10638 10635 10634 10633 10632 10630 10628 10627 10624 10620 10620 10618 10615 10612 10607 10604 10603 10601 10600 10595 10588 10585 10583 10580 10576 10571 10568 10565 10562 10560 10555 10551 10546 10542 10539 10536 10534 10531 10528 10525 10521 10516 10512 10508 10504 10501 10497 10494 10490 10486 10481 10477 10474 10471 10468 10466 10463 10460 10456 10453 10450 10446 10443 10441 10438 10436 10433 10430 10427 10423 10419 10416 10413 10410 10407 10403 10398 10394 10392 10389
10640 10638 10637 10637 10636 10635 10632 10630 10629 10628 10626 10625 10622 10620 10617 10613 10613 10613 10609 10606 10601 10598 10596 10593 10592 10587 10580 10578 10576 10574 10570 10565 10561 10557 10553 10550 10546 10542 10539 10535 10532 10529 10526 10523 10520 10517 10512 10508 10504 10500 10497 10493 10490 10486 10481 10476 10472 10469 10466 10463 10460 10457 10454 10451 10448 10445 10441 10438 10434 10431 10428 10425 10423 10420 10417 10414 10410 10406 10403 10399 10395 10391 10386 10381 10378 10375
10635 10633 10632 10632 10631 10629 10627 10625 10623 10623 10621 10619 10617 10614 10610 10607 10607 10606 10603 10600 10596 10592 10590 10587 10584 10580 10573 10569 10569 10567 10563 10558 10555 10550 10545 10541 10536 10533 10530 10527 10524 10521 10518 10516 10512 10508 10504 10500 10496 10492 10489 10486 10482 10477 10473 10469 10465 10461 10458 10455 10451 10448 10445 10441 10438 10435 10432 10428 10425 10422 10418 10414 10411 10409 10406 10403 10400 10396 10393 10388 10383 10378 10373 10368 10363 10359
10630 10627 10627 10627 10624 10623 10621 10619 10617 10617 10615 10613 10611 10606 10603 10602 10599 10597 10596 10594 10591 10587 10584 10581 10578 10575 10567 10561 10561 10560 10556 10552 10548 10543 10537 10532 10529 10526 10522 10519 10516 10513 10510 10507 10504 10500 10496 10492 10488 10484 10481 10477 10473 10469 10465 10461 10458 10454 10450 10447 10443 10439 10435 10431 10428 10425 10422 10418 10414 10412 10408 10403 10399 10396 10392 10389 10386 10384 10381 10376 10371 10365 10360 10354 10349 10344
10624 10622 10622 10621 10618 10617 10615 10613 10611 10609 10609 10607 10604 10600 10598 10596 10592 10589 10587 10586 10584 10581 10578 10574 10570 10570 10562 10552 10552 10553 10549 10546 10542 10536 10529 10525 10523 10519 10515 10512 10509 10506 10502 10498 10495 10492 10488 10484 10481 10477 10472 10468 10464 10461 10457 10454 10450 10446 10442 10438 10434 10430 10427 10423 10418 10415 10411 10408 10403 10399 10396 10392 10387 10383 10378 10373 10370 10368 10365 10362 10358 10352 10346 10341 10335 10328
10618 10617 10617 10615 10613 10611 10609 10607 10605 10603 10603 10601 10597 10594 10592 10589 10585 10583 10580 10578 10576 10573 10571 10565 10560 10562 10558 10545 10541 10541 10540 10540 10535 10528 10522 10518 10515 10511 10508 10505 10501 10497 10493 10489 10486 10482 10479 10476 10472 10469 10465 10460 10456 10453 10449 10445 10441 10437 10433 10429 10425 10421 10417 10412 10408 10404 10399 10396 10391 10387 10383 10378 10374 10369 10364 10359 10355 10352 10348 10345 10341 10336 10330 10325 10320 10312
10613 10612 10611 10609 10607 10606 10603 10601 10599 10597 10596 10594 10591 10588 10585 10582 10579 10576 10573 10570 10568 10567 10564 10557 10551 10551 10549 10539 10532 10529 10530 10531 10527 10521 10515 10511 10507 10504 10501 10497 10493 10488 10484 10480 10476 10473 10469 10466 10463 10460 10457 10453 10448 10444 10440 10436 10431 10427 10423 10419 10415 10410 10406 10401 10396 10392 10387 10383 10378 10373 10369 10365 10360 10355 10351 10346 10341 10337 10333 10329 10325 10318 10312 10307 10301 10295
10608 10607 10605 10603 10602 10600 10597 10595 10593 10591 10589 10587 10584 10581 10578 10575 10572 10569 10566 10563 10560 10560 10558 10551 10544 10541 10539 10531 10523 10520 10520 10520 10519 10515 10509 10505 10502 10499 10495 10490 10485 10481 10477 10473 10469 10465 10462 10458 10454 10451 10448 10444 10440 10436 10431 10427 10422 10418 10413 10408 10403 10399 10394 10390 10385 10381 10376 10371 10366 10360 10355 10351 10346 10341 10338 10333 10327 10321 10316 10313 10310 10303 10297 10289 10283 10277
10603 10602 10599 10597 10596 10594 10591 10588 10586 10584 10583 10580 10577 10574 10571 10568 10565 10562 10559 10556 10553 10552 10550 10545 10538 10535 10532 10522 10513 10511 10511 10509 10509 10506 10500 10497 10494 10492 10488 10483 10478 10474 10470 10467 10463 10459 10455 10451 10447 10443 10439 10436 10432 10427 10422 10417 10413 10408 10403 10398 10392 10387 10383 10379 10374 10370 10365 10359 10354 10349 10343 10338 10332 10327 10322 10318 10313 10306 10300 10296 10291 10286 10280 10273 10266 10260
10598 10596 10593 10591 10589 10587 10584 10582 10580 10577 10575 10572 10570 10567 10564 10560 10558 10554 10550 10547 10544 10543 10542 10538 10531 10528 10525 10515 10505 10501 10498 10499 10500 10498 10493 10490 10487 10483 10480 10475 10471 10468 10464 10461 10457 10453 10449 10445 10440 10436 10432 10427 10423 10419 10414 10409 10404 10399 10394 10389 10384 10378 10372 10368 10363 10358 10353 10347 10342 10336 10331 10325 10319 10313 10307 10302 10297 10290 10284 10279 10273 10266 10260 10253 10248 10243
10592 10590 10587 10585 10582 10580 10578 10575 10573 10571 10568 10565 10562 10560 10557 10554 10551 10548 10545 10540 10536 10534 10533 10530 10526 10522 10517 10510 10503 10494 10487 10487 10488 10487 10486 10484 10480 10475 10471 10467 10464 10461 10457 10454 10450 10446 10442 10438 10433 10428 10424 10419 10415 10410 10406 10401 10396 10390 10385 10380 10374 10368 10362 10357 10352 10347 10341 10334 10328 10322 10316 10310 10305 10299 10292 10286 10280 10272 10265 10259 10253 10247 10240 10234 10229 10224
10586 10583 10580 10578 10575 10573 10571 10568 10566 10564 10561 10557 10553 10550 10549 10546 10543 10542 10539 10534 10530 10527 10526 10523 10518 10515 10510 10502 10498 10491 10484 10480 10478 10477 10477 10475 10471 10467 10463 10459 10457 10453 10450 10445 10441 10438 10434 10430 10425 10420 10414 10409 10405 10401 10397 10392 10386 10380 10374 10367 10362 10356 10350 10344 10340 10335 10329 10322 10315 10309 10302 10295 10289 10282 10275 10268 10261 10254 10246 10240 10233 10228 10221 10215 10210 10205
10581 10577 10573 10570 10567 10564 10562 10561 10558 10556 10554 10551 10545 10542 10540 10537 10535 10535 10531 10527 10524 10520 10518 10515 10509 10507 10502 10494 10489 10485 10480 10476 10472 10471 10469 10465 10461 10458 10455 10452 10449 10445 10441 10436 10432 10428 10424 10419 10414 10410 10404 10399 10394 10389 10384 10379 10374 10368 10362 10355 10349 10343 10337 10331 10326 10320 10314 10307 10300 10294 10288 10281 10273 10266 10259 10251 10244 10236 10229 10221 10214 10208 10203 10198 10192 10187
10576 10573 10568 10563 10560 10557 10555 10553 10550 10548 10547 10544 10539 10536 10533 10529 10526 10527 10524 10521 10518 10514 10511 10507 10501 10498 10495 10489 10484 10480 10475 10471 10468 10465 10461 10456 10452 10450 10448 10444 10439 10435 10431 10427 10423 10419 10414 10409 10404 10399 10395 10389 10383 10378 10372 10366 10361 10356 10350 10342 10336 10329 10323 10316 10309 10303 10295 10288 10280 10274 10269 10264 10258 10251 10243 10236 10228 10219 10212 10205 10198 10191 10186 10181 10176 10171
10570 10567 10563 10558 10553 10550 10548 10546 10543 10541 10539 10536 10532 10529 10526 10522 10518 10518 10516 10512 10509 10507 10504 10499 10493 10490 10488 10483 10478 10474 10470 10465 10462 10459 10453 10448 10444 10441 10439 10435 10430 10426 10422 10418 10414 10409 10404 10398 10393 10387 10383 10378 10373 10367 10361 10355 10349 10343 10337 10329 10322 10315 10308 10301 10294 10287 10280 10273 10265 10257 10249 10243 10238 10233 10227 10219 10211 10203 10195 10189 10183 10177 10170 10165 10161 10156
10564 10562 10557 10552 10547 10544 10542 10540 10537 10534 10532 10529 10526 10522 10519 10516 10512 10511 10510 10505 10500 10499 10497 10491 10487 10483 10481 10478 10473 10468 10464 10461 10456 10452 10446 10441 10437 10434 10431 10426 10420 10415 10411 10408 10404 10398 10392 10387 10381 10375 10370 10365 10360 10354 10348 10341 10335 10329 10322 10315 10309 10302 10295 10288 10281 10274 10268 10261 10255 10246 10235 10224 10215 10211 10206 10200 10194 10187 10179 10173 10168 10163 10157 10150 10145 10141
10557 10557 10552 10546 10541 10538 10536 10534 10530 10528 10525 10522 10519 10515 10512 10510 10506 10503 10503 10499 10493 10491 10489 10484 10480 10476 10473 10472 10468 10463 10459 10455 10451 10444 10438 10434 10430 10426 10422 10417 10411 10406 10402 10398 10394 10388 10382 10376 10369 10363 10358 10353 10347 10341 10334 10327 10321 10314 10307 10300 10295 10289 10282 10275 10266 10258 10251 10244 10238 10232 10225 10213 10200 10190 10185 10180 10175 10169 10163 10157 10151 10147 10142 10136 10130 10125
10550 10551 10547 10540 10535 10532 10529 10526 10524 10522 10518 10514 10512 10508 10504 10503 10500 10496 10494 10491 10488 10486 10483 10479 10473 10467 10464 10462 10459 10456 10453 10449 10444 10436 10430 10425 10421 10417 10412 10407 10403 10398 10394 10389 10383 10377 10371 10363 10355 10349 10343 10338 10333 10326 10320 10313 10307 10300 10292 10285 10278 10272 10265 10257 10248 10240 10232 10224 10216 10211 10206 10200 10189 10177 10167 10161 10157 10152 10146 10140 10134 10131 10127 10121 10115 10110
10543 10543 10542 10535 10529 10527 10524 10519 10517 10515 10512 10508 10504 10501 10497 10494 10492 10489 10485 10482 10481 10480 10477 10474 10469 10461 10457 10454 10450 10448 10446 10442 10437 10430 10422 10416 10411 10407 10401 10395 10391 10387 10382 10377 10371 10364 10357 10349 10341 10334 10328 10324 10319 10312 10305 10299 10293 10285 10276 10268 10260 10253 10246 10237 10228 10220 10213 10205 10197 10190 10184 10178 10172 10164 10153 10144 10140 10137 10130 10124 10119 10115 10111 10107 10102 10096
10537 10536 10535 10530 10524 10521 10518 10514 10511 10507 10505 10503 10499 10495 10491 10486 10484 10482 10478 10474 10472 10471 10469 10467 10465 10456 10448 10446 10445 10441 10437 10433 10429 10421 10412 10406 10401 10395 10388 10382 10377 10373 10369 10364 10358 10352 10345 10338 10330 10323 10317 10312 10306 10299 10291 10284 10278 10270 10262 10253 10244 10236 10228 10220 10210 10201 10194 10187 10180 10172 10165 10158 10153 10148 10140 10129 10123 10119 10114 10109 10104 10099 10095 10092 10087 10083
10531 10529 10527 10523 10519 10515 10510 10508 10506 10501 10498 10496 10493 10489 10485 10481 10478 10475 10473 10470 10465 10463 10459 10456 10457 10450 10439 10436 10436 10432 10426 10424 10420 10410 10400 10395 10390 10383 10376 10369 10363 10358 10355 10350 10344 10338 10332 10325 10318 10311 10304 10298 10291 10284 10277 10269 10261 10254 10245 10236 10227 10219 10210 10201 10192 10184 10176 10169 10162 10155 10147 10141 10135 10131 10125 10116 10109 10103 10097 10092 10088 10083 10080 10076 10072 10068
10524 10522 10520 10516 10513 10509 10504 10501 10500 10496 10491 10488 10485 10481 10477 10474 10472 10469 10467 10465 10462 10458 10452 10448 10447 10442 10434 10431 10428 10422 10417 10414 10409 10402 10394 10388 10380 10372 10365 10358 10350 10344 10339 10334 10328 10323 10317 10309 10301 10294 10288 10281 10274 10267 10259 10251 10242 10234 10227 10219 10211 10203 10193 10183 10174 10166 10158 10151 10146 10137 10128 10122 10117 10113 10108 10101 10096 10090 10082 10076 10072 10069 10065 10061 10057 10053
10517 10516 10514 10510 10506 10502 10498 10495 10494 10489 10484 10481 10478 10474 10469 10466 10464 10461 10459 10458 10457 10452 10445 10442 10438 10430 10425 10424 10419 10413 10409 10401 10394 10390 10385 10379 10371 10363 10355 10348 10341 10334 10327 10320 10313 10307 10300 10292 10284 10277 10269 10262 10255 10248 10240 10231 10223 10216 10208 10200 10192 10184 10175 10165 10156 10149 10140 10133 10128 10121 10113 10106 10098 10093 10089 10085 10081 10076 10068 10061 10056 10054 10051 10047 10042 10038
10510 10508 10507 10506 10502 10497 10492 10489 10488 10484 10477 10474 10473 10469 10464 10458 10455 10453 10450 10448 10447 10444 10437 10434 10432 10423 10413 10410 10407 10403 10397 10387 10379 10375 10370 10364 10357 10350 10342 10334 10327 10320 10313 10305 10298 10291 10284 10275 10267 10259 10250 10242 10235 10229 10222 10212 10204 10196 10187 10179 10171 10163 10155 10147 10139 10131 10124 10116 10110 10104 10099 10092 10083 10076 10072 10068 10065 10060 10053 10046 10041 10039 10036 10032 10029 10025
10504 10500 10499 10498 10495 10491 10488 10483 10482 10480 10474 10469 10467 10464 10460 10454 10449 10446 10443 10440 10438 10436 10430 10423 10423 10420 10406 10397 10397 10393 10383 10375 10368 10361 10354 10346 10339 10332 10325 10318 10310 10303 10295 10288 10282 10275 10267 10259 10250 10242 10234 10226 10218 10211 10202 10193 10184 10175 10166 10158 10151 10142 10135 10128 10121 10114 10107 10099 10092 10087 10082 10076 10069 10061 10056 10052 10048 10044 10038 10031 10026 10023 10020 10018 10015 10011
10499 10494 10491 10489 10486 10484 10482 10478 10476 10475 10471 10465 10461 10458 10454 10450 10444 10439 10436 10433 10430 10429 10424 10413 10410 10410 10400 10390 10386 10381 10372 10364 10357 10349 10341 10333 10324 10316 10309 10303 10295 10287 10278 10270 10265 10259 10251 10244 10236 10227 10219 10210 10201 10192 10182 10173 10164 10154 10146 10139 10132 10124 10115 10108 10103 10096 10089 10083 10076 10070 10064 10059 10053 10047 10042 10036 10032 10028 10022 10014 10010 10007 10005 10002 10000 9997
10494 10488 10485 10482 10478 10476 10475 10472 10470 10469 10465 10461 10456 10450 10447 10443 10438 10433 10428 10425 10421 10419 10416 10407 10397 10393 10388 10380 10374 10367 10359 10353 10344 10335 10328 10320 10312 10304 10299 10292 10284 10274 10265 10256 10249 10243 10235 10226 10218 10209 10201 10192 10183 10174 10163 10154 10144 10134 10125 10118 10112 10105 10096 10088 10084 10078 10071 10066 10059 10053 10047 10042 10037 10032 10027 10021 10016 10012 10006 9999 9994 9992 9990 9988 9985 9983
10488 10484 10480 10477 10472 10470 10469 10466 10465 10463 10459 10455 10450 10443 10440 10437 10431 10426 10420 10415 10412 10408 10404 10399 10388 10378 10373 10368 10361 10352 10345 10339 10331 10322 10314 10305 10298 10292 10287 10279 10270 10261 10251 10242 10234 10226 10216 10207 10197 10188 10181 10172 10163 10154 10144 10134 10126 10116 10106 10098 10092 10086 10077 10070 10065 10059 10053 10048 10042 10036 10030 10025 10021 10016 10011 10005 10000 9996 9992 9985 9979 9976 9975 9975 9972 9968
10483 10479 10476 10473 10467 10465 10463 10460 10460 10458 10452 10447 10442 10436 10433 10429 10424 10418 10411 10405 10402 10396 10390 10385 10378 10368 10360 10354 10347 10339 10330 10323 10315 10306 10297 10287 10279 10274 10271 10264 10254 10245 10236 10225 10216 10208 10199 10188 10178 10169 10161 10152 10142 10133 10124 10116 10109 10101 10091 10082 10075 10069 10061 10054 10048 10042 10036 10030 10024 10018 10012 10006 10001 9998 9994 9989 9983 9979 9976 9971 9965 9960 9958 9959 9958 9955
10478 10474 10472 10469 10464 10461 10458 10454 10453 10452 10446 10439 10433 10427 10424 10421 10415 10409 10403 10396 10392 10387 10378 10369 10363 10357 10350 10342 10333 10323 10314 10306 10298 10289 10280 10273 10264 10256 10250 10243 10235 10228 10219 10208 10199 10191 10182 10171 10160 10151 10143 10133 10123 10115 10106 10099 10093 10086 10076 10067 10058 10051 10044 10037 10031 10024 10019 10012 10007 10002 9995 9989 9983 9979 9975 9971 9966 9961 9959 9956 9952 9947 9942 9941 9941 9941
10474 10471 10468 10465 10461 10456 10453 10449 10446 10445 10441 10434 10426 10419 10416 10413 10407 10400 10393 10387 10383 10378 10370 10359 10351 10346 10340 10332 10324 10315 10304 10293 10282 10270 10260 10255 10252 10243 10231 10222 10215 10209 10202 10193 10184 10176 10166 10155 10144 10135 10126 10115 10106 10098 10089 10082 10076 10070 10061 10052 10043 10034 10027 10021 10014 10007 10002 9996 9990 9986 9980 9974 9969 9964 9959 9954 9950 9947 9943 9940 9938 9935 9931 9927 9925 9925
10470 10467 10464 10461 10457 10452 10448 10444 10440 10438 10435 10429 10420 10412 10408 10405 10398 10391 10383 10376 10370 10364 10355 10347 10341 10334 10327 10319 10313 10306 10297 10285 10272 10255 10240 10235 10234 10229 10219 10208 10198 10189 10181 10172 10164 10155 10146 10136 10126 10117 10108 10098 10088 10081 10073 10065 10058 10051 10043 10035 10027 10019 10012 10005 9999 9992 9986 9981 9975 9970 9965 9960 9955 9950 9944 9938 9934 9932 9929 9926 9923 9921 9919 9917 9913 9911
10466 10463 10460 10457 10453 10448 10443 10439 10434 10429 10425 10419 10412 10405 10400 10396 10390 10383 10374 10367 10361 10352 10340 10332 10327 10320 10312 10302 10293 10287 10282 10274 10262 10244 10228 10220 10215 10209 10202 10193 10181 10170 10160 10150 10142 10134 10126 10117 10108 10099 10089 10079 10069 10062 10055 10046 10039 10032 10025 10017 10012 10006 9999 9992 9986 9978 9972 9966 9960 9954 9950 9945 9940 9935 9930 9924 9919 9916 9914 9913 9910 9908 9906 9905 9903 9900
10461 10458 10454 10451 10447 10443 10438 10434 10429 10423 10416 10408 10400 10394 10389 10383 10378 10373 10364 10353 10346 10338 10326 10317 10310 10301 10293 10286 10276 10270 10265 10260 10250 10231 10215 10207 10199 10187 10180 10173 10164 10154 10144 10133 10123 10115 10107 10098 10089 10080 10071 10062 10053 10045 10039 10031 10023 10016 10009 10000 9995 9991 9985 9979 9973 9965 9959 9953 9946 9940 9935 9930 9925 9920 9915 9911 9907 9903 9900 9898 9897 9895 9893 9892 9891 9889
10456 10453 10449 10445 10440 10436 10431 10426 10422 10418 10411 10401 10392 10385 10378 10370 10362 10359 10355 10344 10332 10324 10316 10309 10301 10291 10281 10273 10263 10255 10249 10245 10237 10217 10197 10188 10180 10167 10157 10149 10141 10135 10127 10116 10106 10096 10088 10081 10072 10062 10054 10047 10040 10033 10027 10019 10010 10002 9994 9984 9977 9973 9968 9963 9958 9951 9944 9938 9931 9925 9920 9915 9911 9906 9901 9897 9893 9891 9888 9885 9884 9882 9881 9880 9878 9875
10450 10446 10442 10438 10434 10429 10424 10418 10412 10408 10402 10392 10383 10377 10370 10361 10349 10344 10344 10337 10324 10314 10308 10301 10292 10282 10271 10260 10249 10239 10231 10227 10221 10204 10183 10170 10160 10148 10138 10128 10119 10113 10107 10099 10089 10079 10068 10062 10056 10048 10040 10033 10025 10017 10011 10005 9997 9987 9978 9969 9962 9956 9950 9945 9940 9935 9929 9923 9917 9910 9905 9900 9895 9892 9887 9882 9879 9877 9875 9873 9871 9870 9868 9867 9865 9862
10444 10440 10435 10431 10426 10420 10416 10410 10404 10399 10391 10380 10372 10367 10359 10349 10337 10329 10326 10320 10307 10296 10291 10285 10276 10266 10254 10242 10231 10220 10211 10207 10205 10193 10175 10161 10149 10136 10126 10117 10105 10095 10087 10081 10075 10068 10056 10045 10037 10029 10022 10016 10010 10001 9993 9987 9980 9971 9962 9954 9947 9942 9936 9929 9923 9918 9914 9909 9902 9896 9891 9885 9881 9878 9873 9868 9864 9862 9861 9860 9859 9857 9855 9854 9852 9850
10437 10432 10427 10422 10417 10411 10406 10400 10394 10389 10381 10369 10363 10357 10347 10335 10325 10315 10310 10305 10293 10277 10267 10261 10255 10246 10236 10224 10213 10202 10191 10185 10186 10181 10166 10153 10141 10126 10114 10106 10096 10084 10073 10063 10056 10050 10041 10030 10019 10009 10001 9994 9989 9982 9975 9968 9961 9953 9946 9939 9933 9928 9922 9916 9909 9903 9899 9894 9888 9882 9876 9871 9867 9863 9860 9855 9850 9848 9847 9846 9845 9843 9841 9840 9839 9838
10430 10424 10418 10412 10407 10401 10396 10389 10381 10376 10367 10357 10351 10347 10336 10323 10311 10301 10293 10289 10282 10269 10252 10240 10234 10227 10219 10209 10199 10189 10176 10164 10160 10158 10148 10136 10125 10112 10098 10089 10081 10070 10060 10050 10040 10031 10023 10013 10002 9992 9983 9976 9971 9965 9959 9952 9945 9937 9930 9924 9918 9913 9908 9902 9896 9890 9884 9880 9875 9869 9863 9858 9853 9849 9846 9843 9839 9835 9833 9832 9831 9829 9828 9827 9826 9825
10423 10418 10411 10404 10396 10390 10385 10378 10370 10363 10354 10344 10337 10333 10325 10314 10303 10291 10278 10269 10266 10261 10248 10232 10220 10212 10204 10194 10183 10173 10163 10149 10137 10131 10123 10112 10103 10094 10083 10072 10063 10053 10042 10033 10024 10016 10008 9999 9987 9976 9966 9959 9953 9948 9942 9937 9930 9922 9915 9909 9903 9898 9892 9886 9881 9876 9871 9865 9861 9856 9851 9846 9841 9837 9834 9830 9828 9825 9822 9818 9816 9816 9816 9814 9814 9813
10417 10411 10404 10397 10388 10380 10374 10367 10359 10351 10343 10334 10326 10318 10310 10301 10293 10283 10271 10258 10247 10242 10236 10223 10209 10197 10188 10179 10167 10155 10146 10134 10121 10110 10102 10092 10082 10074 10066 10057 10048 10039 10028 10017 10007 9997 9990 9982 9972 9961 9951 9942 9936 9930 9925 9921 9916 9909 9902 9895 9889 9884 9878 9872 9866 9861 9856 9851 9846 9841 9837 9833 9829 9825 9822 9818 9816 9814 9812 9807 9803 9804 9804 9803 9802 9801
10409 10403 10395 10388 10381 10373 10365 10357 10349 10341 10333 10326 10318 10308 10297 10287 10277 10268 10259 10248 10233 10222 10214 10204 10192 10179 10169 10161 10152 10141 10130 10120 10108 10096 10086 10075 10063 10054 10047 10039 10031 10024 10015 10005 9994 9984 9975 9967 9957 9946 9937 9929 9923 9917 9911 9906 9903 9898 9890 9883 9877 9871 9865 9859 9853 9848 9843 9838 9833 9828 9823 9820 9816 9813 9810 9807 9804 9803 9801 9797 9792 9791 9792 9792 9791 9790
10400 10394 10386 10378 10370 10364 10356 10346 10335 10326 10318 10310 10303 10294 10283 10271 10260 10249 10239 10230 10218 10205 10194 10184 10174 10162 10151 10142 10135 10127 10117 10108 10098 10085 10074 10065 10053 10042 10033 10024 10015 10007 10000 9991 9981 9972 9963 9956 9947 9937 9926 9916 9909 9904 9897 9892 9890 9886 9879 9872 9865 9859 9853 9847 9841 9836 9831 9826 9821 9816 9812 9808 9804 9801 9798 9795 9793 9792 9789 9786 9783 9781 9780 9781 9781 9780
10391 10385 10378 10368 10358 10350 10344 10335 10322 10311 10301 10292 10283 10274 10263 10252 10240 10228 10217 10207 10198 10188 10178 10168 10160 10150 10139 10129 10121 10113 10103 10094 10085 10074 10062 10053 10043 10032 10023 10013 10003 9994 9986 9978 9968 9959 9951 9943 9934 9926 9917 9906 9897 9891 9884 9879 9876 9874 9869 9862 9854 9847 9841 9836 9831 9826 9820 9815 9810 9805 9802 9798 9793 9789 9787 9784 9783 9781 9778 9775 9774 9772 9770 9770 9770 9769
10381 10373 10366 10357 10347 10337 10327 10319 10308 10295 10283 10274 10264 10253 10243 10233 10222 10212 10200 10189 10180 10172 10163 10154 10145 10137 10128 10118 10109 10100 10090 10079 10071 10061 10049 10039 10030 10020 10011 10002 9992 9981 9972 9964 9955 9947 9940 9931 9921 9912 9906 9898 9888 9880 9873 9866 9861 9858 9855 9849 9843 9836 9830 9824 9820 9814 9808 9804 9800 9795 9791 9788 9783 9778 9776 9774 9772 9770 9768 9765 9764 9762 9760 9759 9759 9758
10372 10363 10354 10344 10334 10324 10313 10303 10293 10280 10268 10258 10249 10238 10228 10218 10208 10198 10188 10177 10166 10157 10149 10141 10132 10123 10113 10103 10094 10085 10075 10064 10056 10047 10037 10026 10017 10008 9999 9990 9980 9970 9960 9949 9940 9933 9928 9921 9912 9903 9894 9887 9878 9869 9861 9854 9848 9844 9840 9835 9830 9825 9819 9812 9807 9802 9796 9792 9788 9784 9780 9777 9774 9769 9766 9763 9761 9759 9757 9756 9755 9752 9750 9749 9748 9747
10360 10351 10342 10332 10321 10311 10300 10290 10280 10267 10254 10242 10234 10225 10216 10207 10197 10187 10178 10168 10157 10145 10135 10126 10117 10108 10099 10089 10080 10072 10062 10051 10040 10032 10023 10012 10003 9994 9986 9977 9968 9958 9949 9938 9928 9920 9914 9907 9901 9893 9884 9876 9867 9859 9850 9843 9836 9830 9826 9822 9817 9811 9806 9799 9793 9788 9784 9781 9777 9773 9769 9766 9763 9760 9756 9752 9751 9749 9747 9747 9746 9743 9740 9739 9738 9737
10347 10338 10330 10321 10309 10298 10287 10277 10268 10258 10246 10233 10223 10214 10206 10197 10187 10177 10167 10157 10147 10136 10125 10114 10103 10092 10083 10075 10067 10058 10049 10038 10027 10016 10006 9997 9989 9981 9973 9965 9957 9947 9937 9927 9918 9909 9901 9893 9886 9879 9871 9863 9855 9848 9841 9834 9826 9819 9813 9809 9804 9799 9794 9788 9781 9776 9773 9769 9766 9762 9759 9755 9753 9750 9746 9743 9741 9740 9738 9737 9737 9735 9732 9730 9729 9727
10334 10325 10317 10307 10297 10286 10275 10265 10257 10249 10240 10229 10217 10206 10197 10187 10177 10166 10156 10146 10135 10125 10115 10105 10093 10080 10068 10058 10050 10042 10033 10024 10014 10004 9993 9983 9975 9969 9961 9955 9948 9938 9927 9916 9907 9899 9890 9881 9873 9866 9858 9850 9842 9835 9828 9822 9816 9810 9804 9799 9794 9788 9783 9778 9772 9766 9762 9759 9756 9753 9749 9745 9742 9740 9738 9735 9733 9731 9729 9729 9728 9726 9724 9722 9721 9719
10320 10312 10303 10294 10285 10275 10264 10253 10243 10234 10226 10216 10205 10195 10185 10175 10166 10155 10145 10134 10123 10112 10101 10091 10082 10071 10060 10048 10038 10029 10020 10011 10001 9992 9983 9972 9964 9957 9950 9942 9935 9928 9917 9906 9896 9888 9880 9872 9864 9856 9849 9840 9831 9824 9816 9810 9805 9801 9795 9789 9784 9778 9773 9769 9763 9758 9753 9749 9746 9743 9740 9736 9733 9731 9729 9727 9725 9722 9721 9721 9721 9719 9715 9714 9713 9712